10-01-2022, 00:00:04,    150,    0.0,    2.3,   0.00,   0.00, 1006.7,   86.3, -999.0
10-01-2022, 00:00:14,    150,    0.0,    2.4,   0.00,   0.00, 1006.7,   86.2, -999.0
10-01-2022, 00:00:24,    150,    0.0,    2.3,   0.00,   0.00, 1006.7,   86.4, -999.0
10-01-2022, 00:00:34,    150,    0.0,    2.4,   0.00,   0.00, 1006.7,   86.2, -999.0
10-01-2022, 00:00:44,    150,    0.0,    2.4,   0.00,   0.00, 1006.7,   86.3, -999.0
10-01-2022, 00:00:54,    150,    0.0,    2.4,   0.00,   0.00, 1006.7,   86.3, -999.0
10-01-2022, 00:01:03,    150,    0.0,    2.4,   0.00,   0.00, 1006.7,   86.4, -999.0
10-01-2022, 00:01:14,    150,    0.0,    2.5,   0.00,   0.00, 1006.7,   86.5, -999.0
10-01-2022, 00:01:24,    150,    0.0,    2.4,   0.00,   0.00, 1006.7,   86.4, -999.0
10-01-2022, 00:01:33,    150,    0.0,    2.4,   0.00,   0.00, 1006.7,   86.4, -999.0
10-01-2022, 00:01:43,    150,    0.0,    2.5,   0.00,   0.00, 1006.7,   86.4, -999.0
10-01-2022, 00:01:54,    150,    0.0,    2.4,   0.00,   0.00, 1006.7,   86.5, -999.0
10-01-2022, 00:02:03,    149,    0.0,    2.4,   0.00,   0.00, 1006.7,   86.4, -999.0
10-01-2022, 00:02:13,    150,    0.0,    2.4,   0.00,   0.00, 1006.7,   86.4, -999.0
10-01-2022, 00:02:23,    150,    0.0,    2.5,   0.00,   0.00, 1006.7,   86.4, -999.0
10-01-2022, 00:02:33,    150,    0.0,    2.4,   0.00,   0.00, 1006.8,   86.3, -999.0
10-01-2022, 00:02:43,    149,    0.0,    2.4,   0.00,   0.00, 1006.7,   86.3, -999.0
10-01-2022, 00:02:53,    150,    0.0,    2.4,   0.00,   0.00, 1006.8,   86.5, -999.0
10-01-2022, 00:03:03,    150,    0.0,    2.4,   0.00,   0.00, 1006.8,   86.4, -999.0
10-01-2022, 00:03:13,    150,    0.0,    2.4,   0.00,   0.00, 1006.8,   86.4, -999.0
10-01-2022, 00:03:23,    150,    0.0,    2.5,   0.00,   0.00, 1006.8,   86.4, -999.0
10-01-2022, 00:03:33,    150,    0.0,    2.5,   0.00,   0.00, 1006.8,   86.4, -999.0
10-01-2022, 00:03:43,    150,    0.0,    2.5,   0.00,   0.00, 1006.8,   86.4, -999.0
10-01-2022, 00:03:53,    150,    0.0,    2.5,   0.00,   0.00, 1006.7,   86.4, -999.0
10-01-2022, 00:04:03,    150,    0.0,    2.5,   0.00,   0.00, 1006.8,   86.4, -999.0
10-01-2022, 00:04:12,    150,    0.0,    2.5,   0.00,   0.00, 1006.8,   86.4, -999.0
10-01-2022, 00:04:23,    150,    0.0,    2.6,   0.00,   0.00, 1006.8,   86.5, -999.0
10-01-2022, 00:04:33,    150,    0.0,    2.5,   0.00,   0.00, 1006.8,   86.6, -999.0
10-01-2022, 00:04:42,    150,    0.0,    2.6,   0.00,   0.00, 1006.8,   86.5, -999.0
10-01-2022, 00:04:52,    150,    0.0,    2.5,   0.00,   0.00, 1006.8,   86.5, -999.0
10-01-2022, 00:05:02,    150,    0.0,    2.5,   0.00,   0.00, 1006.8,   86.5, -999.0
10-01-2022, 00:05:12,    150,    0.0,    2.6,   0.00,   0.00, 1006.8,   86.5, -999.0
10-01-2022, 00:05:22,    150,    0.0,    2.5,   0.00,   0.00, 1006.8,   86.4, -999.0
10-01-2022, 00:05:32,    150,    0.0,    2.5,   0.00,   0.00, 1006.8,   86.5, -999.0
10-01-2022, 00:05:42,    150,    0.0,    2.5,   0.00,   0.00, 1006.8,   86.5, -999.0
10-01-2022, 00:05:52,    150,    0.0,    2.6,   0.00,   0.00, 1006.8,   86.5, -999.0
10-01-2022, 00:06:02,    150,    0.0,    2.5,   0.00,   0.00, 1006.8,   86.4, -999.0
10-01-2022, 00:06:12,    150,    0.0,    2.5,   0.00,   0.00, 1006.8,   86.4, -999.0
10-01-2022, 00:06:22,    150,    0.0,    2.6,   0.00,   0.00, 1006.8,   86.4, -999.0
10-01-2022, 00:06:32,    150,    0.0,    2.6,   0.00,   0.00, 1006.8,   86.4, -999.0
10-01-2022, 00:06:42,    150,    0.0,    2.6,   0.00,   0.00, 1006.8,   86.5, -999.0
10-01-2022, 00:06:52,    150,    0.0,    2.6,   0.00,   0.00, 1006.8,   86.5, -999.0
10-01-2022, 00:07:02,    149,    0.0,    2.6,   0.00,   0.00, 1006.8,   86.3, -999.0
10-01-2022, 00:07:12,    150,    0.0,    2.5,   0.00,   0.00, 1006.8,   86.2, -999.0
10-01-2022, 00:07:22,    150,    0.0,    2.5,   0.00,   0.00, 1006.9,   86.3, -999.0
10-01-2022, 00:07:32,    150,    0.0,    2.5,   0.00,   0.00, 1006.8,   86.3, -999.0
10-01-2022, 00:07:41,    150,    0.0,    2.6,   0.00,   0.00, 1006.8,   86.3, -999.0
10-01-2022, 00:07:51,    149,    0.0,    2.5,   0.00,   0.00, 1006.8,   86.3, -999.0
10-01-2022, 00:08:02,    150,    0.0,    2.5,   0.00,   0.00, 1006.8,   86.3, -999.0
10-01-2022, 00:08:11,    150,    0.0,    2.6,   0.00,   0.00, 1006.8,   86.3, -999.0
10-01-2022, 00:08:22,    150,    0.0,    2.6,   0.00,   0.00, 1006.9,   86.4, -999.0
10-01-2022, 00:08:31,    150,    0.0,    2.6,   0.00,   0.00, 1006.8,   86.4, -999.0
10-01-2022, 00:08:41,    150,    0.0,    2.6,   0.00,   0.00, 1006.8,   86.4, -999.0
10-01-2022, 00:08:51,    150,    0.0,    2.6,   0.00,   0.00, 1006.8,   86.4, -999.0
10-01-2022, 00:09:01,    150,    0.0,    2.6,   0.00,   0.00, 1006.8,   86.5, -999.0
10-01-2022, 00:09:11,    151,    0.0,    2.6,   0.00,   0.00, 1006.8,   86.3, -999.0
10-01-2022, 00:09:21,    150,    0.0,    2.6,   0.00,   0.00, 1006.8,   86.3, -999.0
10-01-2022, 00:09:31,    150,    0.0,    2.5,   0.00,   0.00, 1006.8,   86.2, -999.0
10-01-2022, 00:09:41,    150,    0.0,    2.6,   0.00,   0.00, 1006.8,   86.1, -999.0
10-01-2022, 00:09:51,    150,    0.0,    2.5,   0.00,   0.00, 1006.8,   86.0, -999.0
10-01-2022, 00:10:01,    150,    0.0,    2.5,   0.00,   0.00, 1006.8,   86.1, -999.0
10-01-2022, 00:10:11,    150,    0.0,    2.5,   0.00,   0.00, 1006.8,   86.0, -999.0
10-01-2022, 00:10:21,    150,    0.0,    2.5,   0.00,   0.00, 1006.8,   86.2, -999.0
10-01-2022, 00:10:31,    150,    0.0,    2.6,   0.00,   0.00, 1006.8,   86.3, -999.0
10-01-2022, 00:10:41,    150,    0.0,    2.5,   0.00,   0.00, 1006.9,   86.2, -999.0
10-01-2022, 00:10:50,    150,    0.0,    2.6,   0.00,   0.00, 1006.9,   86.2, -999.0
10-01-2022, 00:11:00,    150,    0.0,    2.6,   0.00,   0.00, 1006.9,   86.2, -999.0
10-01-2022, 00:11:11,    149,    0.0,    2.6,   0.00,   0.00, 1006.9,   86.3, -999.0
10-01-2022, 00:11:20,    149,    0.0,    2.6,   0.00,   0.00, 1006.9,   86.3, -999.0
10-01-2022, 00:11:30,    149,    0.0,    2.6,   0.00,   0.00, 1006.9,   86.3, -999.0
10-01-2022, 00:11:40,    150,    0.0,    2.7,   0.00,   0.00, 1006.9,   86.4, -999.0
10-01-2022, 00:11:50,    150,    0.0,    2.7,   0.00,   0.00, 1006.9,   86.4, -999.0
10-01-2022, 00:12:00,    150,    0.0,    2.7,   0.00,   0.00, 1006.8,   86.3, -999.0
10-01-2022, 00:12:10,    150,    0.0,    2.7,   0.00,   0.00, 1006.9,   86.3, -999.0
10-01-2022, 00:12:20,    150,    0.0,    2.7,   0.00,   0.00, 1006.9,   86.3, -999.0
10-01-2022, 00:12:30,    150,    0.0,    2.7,   0.00,   0.00, 1006.9,   86.2, -999.0
10-01-2022, 00:12:40,    150,    0.0,    2.7,   0.00,   0.00, 1006.9,   86.2, -999.0
10-01-2022, 00:12:50,    150,    0.0,    2.7,   0.00,   0.00, 1006.9,   86.3, -999.0
10-01-2022, 00:13:00,    150,    0.0,    2.7,   0.00,   0.00, 1006.9,   86.2, -999.0
10-01-2022, 00:13:10,    150,    0.0,    2.6,   0.00,   0.00, 1006.9,   86.1, -999.0
10-01-2022, 00:13:20,    150,    0.0,    2.7,   0.00,   0.00, 1006.9,   86.1, -999.0
10-01-2022, 00:13:30,    150,    0.0,    2.6,   0.00,   0.00, 1006.9,   86.0, -999.0
10-01-2022, 00:13:40,    150,    0.0,    2.6,   0.00,   0.00, 1006.9,   86.1, -999.0
10-01-2022, 00:13:50,    150,    0.0,    2.7,   0.00,   0.00, 1006.9,   86.3, -999.0
10-01-2022, 00:13:59,    150,    0.0,    2.8,   0.00,   0.00, 1006.9,   86.4, -999.0
10-01-2022, 00:14:09,    149,    0.0,    2.8,   0.00,   0.00, 1006.9,   86.3, -999.0
10-01-2022, 00:14:20,    150,    0.0,    2.7,   0.00,   0.00, 1006.9,   86.2, -999.0
10-01-2022, 00:14:29,    150,    0.0,    2.8,   0.00,   0.00, 1006.9,   86.3, -999.0
10-01-2022, 00:14:39,    150,    0.0,    2.7,   0.00,   0.00, 1006.9,   86.1, -999.0
10-01-2022, 00:14:50,    150,    0.0,    2.7,   0.00,   0.00, 1006.9,   86.1, -999.0
10-01-2022, 00:14:59,    150,    0.0,    2.7,   0.00,   0.00, 1006.9,   85.9, -999.0
10-01-2022, 00:15:09,    150,    0.0,    2.7,   0.00,   0.00, 1006.9,   85.9, -999.0
10-01-2022, 00:15:19,    150,    0.0,    2.7,   0.00,   0.00, 1007.0,   85.9, -999.0
10-01-2022, 00:15:29,    150,    0.0,    2.6,   0.00,   0.00, 1007.0,   85.8, -999.0
10-01-2022, 00:15:39,    150,    0.0,    2.6,   0.00,   0.00, 1007.0,   85.8, -999.0
10-01-2022, 00:15:49,    150,    0.0,    2.5,   0.00,   0.00, 1007.0,   85.8, -999.0
10-01-2022, 00:15:59,    150,    0.0,    2.6,   0.00,   0.00, 1007.0,   85.7, -999.0
10-01-2022, 00:16:09,    150,    0.0,    2.5,   0.00,   0.00, 1007.0,   85.6, -999.0
10-01-2022, 00:16:19,    150,    0.0,    2.5,   0.00,   0.00, 1007.0,   85.6, -999.0
10-01-2022, 00:16:29,    150,    0.0,    2.5,   0.00,   0.00, 1007.0,   85.7, -999.0
10-01-2022, 00:16:39,    150,    0.0,    2.5,   0.00,   0.00, 1007.0,   85.7, -999.0
10-01-2022, 00:16:49,    150,    0.0,    2.5,   0.00,   0.00, 1007.0,   85.8, -999.0
10-01-2022, 00:16:59,    150,    0.0,    2.5,   0.00,   0.00, 1007.0,   85.6, -999.0
10-01-2022, 00:17:08,    150,    0.0,    2.5,   0.00,   0.00, 1007.0,   85.8, -999.0
10-01-2022, 00:17:19,    150,    0.0,    2.5,   0.00,   0.00, 1007.0,   85.7, -999.0
10-01-2022, 00:17:29,    150,    0.0,    2.5,   0.00,   0.00, 1007.0,   85.7, -999.0
10-01-2022, 00:17:38,    150,    0.0,    2.5,   0.00,   0.00, 1007.1,   85.7, -999.0
10-01-2022, 00:17:48,    150,    0.0,    2.5,   0.00,   0.00, 1007.1,   85.7, -999.0
10-01-2022, 00:17:59,    150,    0.0,    2.4,   0.00,   0.00, 1007.1,   85.7, -999.0
10-01-2022, 00:18:08,    150,    0.0,    2.5,   0.00,   0.00, 1007.1,   85.7, -999.0
10-01-2022, 00:18:18,    150,    0.0,    2.4,   0.00,   0.00, 1007.1,   85.8, -999.0
10-01-2022, 00:18:28,    150,    0.0,    2.4,   0.00,   0.00, 1007.1,   85.7, -999.0
10-01-2022, 00:18:38,    150,    0.0,    2.4,   0.00,   0.00, 1007.1,   85.7, -999.0
10-01-2022, 00:18:48,    150,    0.0,    2.4,   0.00,   0.00, 1007.1,   85.7, -999.0
10-01-2022, 00:18:58,    150,    0.0,    2.5,   0.00,   0.00, 1007.1,   85.8, -999.0
10-01-2022, 00:19:08,    149,    0.0,    2.4,   0.00,   0.00, 1007.1,   85.7, -999.0
10-01-2022, 00:19:18,    149,    0.0,    2.5,   0.00,   0.00, 1007.1,   85.8, -999.0
10-01-2022, 00:19:28,    150,    0.0,    2.5,   0.00,   0.00, 1007.1,   85.8, -999.0
10-01-2022, 00:19:38,    150,    0.0,    2.6,   0.00,   0.00, 1007.1,   85.8, -999.0
10-01-2022, 00:19:48,    150,    0.0,    2.5,   0.00,   0.00, 1007.1,   85.8, -999.0
10-01-2022, 00:19:58,    150,    0.0,    2.5,   0.00,   0.00, 1007.1,   85.9, -999.0
10-01-2022, 00:20:08,    150,    0.0,    2.5,   0.00,   0.00, 1007.1,   85.9, -999.0
10-01-2022, 00:20:17,    150,    0.0,    2.5,   0.00,   0.00, 1007.1,   85.8, -999.0
10-01-2022, 00:20:28,    150,    0.0,    2.5,   0.00,   0.00, 1007.1,   85.9, -999.0
10-01-2022, 00:20:38,    150,    0.0,    2.4,   0.00,   0.00, 1007.1,   85.8, -999.0
10-01-2022, 00:20:47,    150,    0.0,    2.5,   0.00,   0.00, 1007.1,   85.8, -999.0
10-01-2022, 00:20:58,    150,    0.0,    2.5,   0.00,   0.00, 1007.1,   85.8, -999.0
10-01-2022, 00:21:07,    150,    0.0,    2.4,   0.00,   0.00, 1007.1,   85.8, -999.0
10-01-2022, 00:21:17,    150,    0.0,    2.4,   0.00,   0.00, 1007.1,   85.9, -999.0
10-01-2022, 00:21:27,    150,    0.0,    2.4,   0.00,   0.00, 1007.1,   85.8, -999.0
10-01-2022, 00:21:37,    150,    0.0,    2.4,   0.00,   0.00, 1007.1,   85.8, -999.0
10-01-2022, 00:21:47,    150,    0.0,    2.4,   0.00,   0.00, 1007.1,   85.8, -999.0
10-01-2022, 00:21:57,    150,    0.0,    2.5,   0.00,   0.00, 1007.1,   85.9, -999.0
10-01-2022, 00:22:07,    150,    0.0,    2.4,   0.00,   0.00, 1007.1,   85.8, -999.0
10-01-2022, 00:22:17,    150,    0.0,    2.4,   0.00,   0.00, 1007.1,   86.0, -999.0
10-01-2022, 00:22:27,    150,    0.0,    2.4,   0.00,   0.00, 1007.1,   85.7, -999.0
10-01-2022, 00:22:37,    150,    0.0,    2.4,   0.00,   0.00, 1007.1,   85.9, -999.0
10-01-2022, 00:22:47,    149,    0.0,    2.4,   0.00,   0.00, 1007.1,   85.8, -999.0
10-01-2022, 00:22:57,    150,    0.0,    2.4,   0.00,   0.00, 1007.1,   85.9, -999.0
10-01-2022, 00:23:07,    150,    0.0,    2.4,   0.00,   0.00, 1007.1,   85.8, -999.0
10-01-2022, 00:23:17,    150,    0.0,    2.4,   0.00,   0.00, 1007.1,   85.8, -999.0
10-01-2022, 00:23:27,    150,    0.0,    2.3,   0.00,   0.00, 1007.1,   85.8, -999.0
10-01-2022, 00:23:37,    150,    0.0,    2.4,   0.00,   0.00, 1007.1,   85.9, -999.0
10-01-2022, 00:23:47,    150,    0.0,    2.3,   0.00,   0.00, 1007.1,   85.9, -999.0
10-01-2022, 00:23:56,    150,    0.0,    2.4,   0.00,   0.00, 1007.1,   85.9, -999.0
10-01-2022, 00:24:07,    150,    0.0,    2.4,   0.00,   0.00, 1007.1,   86.0, -999.0
10-01-2022, 00:24:16,    150,    0.0,    2.4,   0.00,   0.00, 1007.1,   85.9, -999.0
10-01-2022, 00:24:26,    150,    0.0,    2.3,   0.00,   0.00, 1007.1,   86.0, -999.0
10-01-2022, 00:24:36,    150,    0.0,    2.4,   0.00,   0.00, 1007.1,   86.1, -999.0
10-01-2022, 00:24:46,    150,    0.0,    2.4,   0.00,   0.00, 1007.1,   86.1, -999.0
10-01-2022, 00:24:56,    150,    0.0,    2.4,   0.00,   0.00, 1007.1,   86.2, -999.0
10-01-2022, 00:25:06,    149,    0.0,    2.3,   0.00,   0.00, 1007.1,   86.1, -999.0
10-01-2022, 00:25:16,    150,    0.0,    2.4,   0.00,   0.00, 1007.0,   86.2, -999.0
10-01-2022, 00:25:26,    150,    0.0,    2.5,   0.00,   0.00, 1007.1,   86.2, -999.0
10-01-2022, 00:25:36,    150,    0.0,    2.5,   0.00,   0.00, 1007.1,   86.1, -999.0
10-01-2022, 00:25:46,    153,    0.0,    2.5,   0.00,   0.00, 1007.1,   86.2, -999.0
10-01-2022, 00:25:56,    149,    0.0,    2.5,   0.00,   0.00, 1007.1,   86.1, -999.0
10-01-2022, 00:26:06,    150,    0.0,    2.6,   0.00,   0.00, 1007.1,   86.2, -999.0
10-01-2022, 00:26:16,    150,    0.0,    2.5,   0.00,   0.00, 1007.1,   86.2, -999.0
10-01-2022, 00:26:26,    150,    0.0,    2.5,   0.00,   0.00, 1007.1,   86.2, -999.0
10-01-2022, 00:26:36,    149,    0.0,    2.4,   0.00,   0.00, 1007.1,   86.2, -999.0
10-01-2022, 00:26:46,    150,    0.0,    2.5,   0.00,   0.00, 1007.1,   86.2, -999.0
10-01-2022, 00:26:56,    150,    0.0,    2.4,   0.00,   0.00, 1007.1,   86.2, -999.0
10-01-2022, 00:27:05,    150,    0.0,    2.5,   0.00,   0.00, 1007.1,   86.2, -999.0
10-01-2022, 00:27:16,    150,    0.0,    2.5,   0.00,   0.00, 1007.1,   86.3, -999.0
10-01-2022, 00:27:25,    150,    0.0,    2.5,   0.00,   0.00, 1007.1,   86.4, -999.0
10-01-2022, 00:27:35,    150,    0.0,    2.5,   0.00,   0.00, 1007.0,   86.4, -999.0
10-01-2022, 00:27:45,    150,    0.0,    2.5,   0.00,   0.00, 1007.1,   86.3, -999.0
10-01-2022, 00:27:55,    150,    0.0,    2.5,   0.00,   0.00, 1007.1,   86.3, -999.0
10-01-2022, 00:28:05,    150,    0.0,    2.4,   0.00,   0.00, 1007.1,   86.3, -999.0
10-01-2022, 00:28:15,    150,    0.0,    2.5,   0.00,   0.00, 1007.1,   86.3, -999.0
10-01-2022, 00:28:25,    150,    0.0,    2.5,   0.00,   0.00, 1007.1,   86.3, -999.0
10-01-2022, 00:28:35,    149,    0.0,    2.5,   0.00,   0.00, 1007.1,   86.3, -999.0
10-01-2022, 00:28:45,    150,    0.0,    2.5,   0.00,   0.00, 1007.1,   86.3, -999.0
10-01-2022, 00:28:55,    150,    0.0,    2.5,   0.00,   0.00, 1007.1,   86.3, -999.0
10-01-2022, 00:29:05,    150,    0.0,    2.6,   0.00,   0.00, 1007.1,   86.3, -999.0
10-01-2022, 00:29:15,    150,    0.0,    2.5,   0.00,   0.00, 1007.1,   86.4, -999.0
10-01-2022, 00:29:25,    150,    0.0,    2.5,   0.00,   0.00, 1007.1,   86.3, -999.0
10-01-2022, 00:29:35,    150,    0.0,    2.5,   0.00,   0.00, 1007.1,   86.4, -999.0
10-01-2022, 00:29:45,    150,    0.0,    2.5,   0.00,   0.00, 1007.2,   86.3, -999.0
10-01-2022, 00:29:55,    150,    0.0,    2.5,   0.00,   0.00, 1007.1,   86.4, -999.0
10-01-2022, 00:30:05,    150,    0.0,    2.5,   0.00,   0.00, 1007.2,   86.3, -999.0
10-01-2022, 00:30:14,    150,    0.0,    2.6,   0.00,   0.00, 1007.2,   86.4, -999.0
10-01-2022, 00:30:25,    149,    0.0,    2.5,   0.00,   0.00, 1007.1,   86.3, -999.0
10-01-2022, 00:30:34,    150,    0.0,    2.6,   0.00,   0.00, 1007.2,   86.4, -999.0
10-01-2022, 00:30:44,    150,    0.0,    2.5,   0.00,   0.00, 1007.2,   86.4, -999.0
10-01-2022, 00:30:55,    150,    0.0,    2.6,   0.00,   0.00, 1007.2,   86.4, -999.0
10-01-2022, 00:31:04,    149,    0.0,    2.6,   0.00,   0.00, 1007.1,   86.4, -999.0
10-01-2022, 00:31:14,    150,    0.0,    2.6,   0.00,   0.00, 1007.1,   86.5, -999.0
10-01-2022, 00:31:24,    150,    0.0,    2.6,   0.00,   0.00, 1007.1,   86.4, -999.0
10-01-2022, 00:31:34,    150,    0.0,    2.6,   0.00,   0.00, 1007.2,   86.6, -999.0
10-01-2022, 00:31:44,    150,    0.0,    2.6,   0.00,   0.00, 1007.2,   86.6, -999.0
10-01-2022, 00:31:54,    150,    0.0,    2.7,   0.00,   0.00, 1007.2,   86.6, -999.0
10-01-2022, 00:32:04,    150,    0.0,    2.7,   0.00,   0.00, 1007.2,   86.7, -999.0
10-01-2022, 00:32:14,    150,    0.0,    2.7,   0.00,   0.00, 1007.2,   86.6, -999.0
10-01-2022, 00:32:24,    150,    0.0,    2.7,   0.00,   0.00, 1007.2,   86.7, -999.0
10-01-2022, 00:32:34,    150,    0.0,    2.6,   0.00,   0.00, 1007.2,   86.8, -999.0
10-01-2022, 00:32:44,    150,    0.0,    2.7,   0.00,   0.00, 1007.2,   86.6, -999.0
10-01-2022, 00:32:54,    150,    0.0,    2.7,   0.00,   0.00, 1007.2,   86.7, -999.0
10-01-2022, 00:33:04,    150,    0.0,    2.7,   0.00,   0.00, 1007.2,   86.6, -999.0
10-01-2022, 00:33:13,    150,    0.0,    2.7,   0.00,   0.00, 1007.2,   86.6, -999.0
10-01-2022, 00:33:24,    150,    0.0,    2.7,   0.00,   0.00, 1007.2,   86.6, -999.0
10-01-2022, 00:33:34,    150,    0.0,    2.8,   0.00,   0.00, 1007.3,   86.9, -999.0
10-01-2022, 00:33:43,    150,    0.0,    2.8,   0.00,   0.00, 1007.2,   86.9, -999.0
10-01-2022, 00:33:53,    150,    0.0,    2.8,   0.00,   0.00, 1007.3,   86.9, -999.0
10-01-2022, 00:34:04,    150,    0.0,    2.9,   0.00,   0.00, 1007.3,   87.0, -999.0
10-01-2022, 00:34:13,    149,    0.0,    2.9,   0.00,   0.00, 1007.3,   86.8, -999.0
10-01-2022, 00:34:23,    150,    0.0,    2.9,   0.00,   0.00, 1007.3,   86.8, -999.0
10-01-2022, 00:34:33,    149,    0.0,    2.9,   0.00,   0.00, 1007.3,   86.7, -999.0
10-01-2022, 00:34:43,    150,    0.0,    2.7,   0.00,   0.00, 1007.3,   86.7, -999.0
10-01-2022, 00:34:53,    150,    0.0,    2.8,   0.00,   0.00, 1007.3,   86.6, -999.0
10-01-2022, 00:35:03,    150,    0.0,    2.9,   0.00,   0.00, 1007.3,   86.6, -999.0
10-01-2022, 00:35:13,    149,    0.0,    2.8,   0.00,   0.00, 1007.3,   86.6, -999.0
10-01-2022, 00:35:23,    150,    0.0,    2.8,   0.00,   0.00, 1007.3,   86.5, -999.0
10-01-2022, 00:35:33,    150,    0.0,    2.9,   0.00,   0.00, 1007.3,   86.5, -999.0
10-01-2022, 00:35:43,    150,    0.0,    2.9,   0.00,   0.00, 1007.3,   86.5, -999.0
10-01-2022, 00:35:53,    150,    0.0,    2.9,   0.00,   0.00, 1007.2,   86.5, -999.0
10-01-2022, 00:36:03,    150,    0.0,    2.8,   0.00,   0.00, 1007.3,   86.4, -999.0
10-01-2022, 00:36:13,    150,    0.0,    2.8,   0.00,   0.00, 1007.3,   86.5, -999.0
10-01-2022, 00:36:22,    150,    0.0,    2.8,   0.00,   0.00, 1007.3,   86.5, -999.0
10-01-2022, 00:36:33,    150,    0.0,    2.8,   0.00,   0.00, 1007.3,   86.4, -999.0
10-01-2022, 00:36:43,    150,    0.0,    2.8,   0.00,   0.00, 1007.3,   86.4, -999.0
10-01-2022, 00:36:52,    150,    0.0,    2.8,   0.00,   0.00, 1007.3,   86.4, -999.0
10-01-2022, 00:37:02,    150,    0.0,    2.9,   0.00,   0.00, 1007.3,   86.4, -999.0
10-01-2022, 00:37:13,    150,    0.0,    2.9,   0.00,   0.00, 1007.3,   86.4, -999.0
10-01-2022, 00:37:22,    150,    0.0,    2.9,   0.00,   0.00, 1007.2,   86.4, -999.0
10-01-2022, 00:37:32,    150,    0.0,    2.9,   0.00,   0.00, 1007.2,   86.4, -999.0
10-01-2022, 00:37:43,    150,    0.0,    2.9,   0.00,   0.00, 1007.2,   86.3, -999.0
10-01-2022, 00:37:52,    150,    0.0,    2.8,   0.00,   0.00, 1007.3,   86.3, -999.0
10-01-2022, 00:38:02,    150,    0.0,    2.8,   0.00,   0.00, 1007.2,   86.3, -999.0
10-01-2022, 00:38:12,    150,    0.0,    2.8,   0.00,   0.00, 1007.3,   86.2, -999.0
10-01-2022, 00:38:22,    149,    0.0,    2.8,   0.00,   0.00, 1007.3,   86.2, -999.0
10-01-2022, 00:38:32,    150,    0.0,    2.8,   0.00,   0.00, 1007.2,   86.3, -999.0
10-01-2022, 00:38:42,    150,    0.0,    2.8,   0.00,   0.00, 1007.2,   86.2, -999.0
10-01-2022, 00:38:52,    150,    0.0,    2.8,   0.00,   0.00, 1007.3,   86.2, -999.0
10-01-2022, 00:39:02,    150,    0.0,    2.8,   0.00,   0.00, 1007.3,   86.1, -999.0
10-01-2022, 00:39:12,    150,    0.0,    2.8,   0.00,   0.00, 1007.3,   86.2, -999.0
10-01-2022, 00:39:22,    149,    0.0,    2.7,   0.00,   0.00, 1007.3,   86.1, -999.0
10-01-2022, 00:39:31,    150,    0.0,    2.7,   0.00,   0.00, 1007.3,   86.1, -999.0
10-01-2022, 00:39:42,    150,    0.0,    2.7,   0.00,   0.00, 1007.3,   86.1, -999.0
10-01-2022, 00:39:52,    150,    0.0,    2.7,   0.00,   0.00, 1007.3,   86.1, -999.0
10-01-2022, 00:40:01,    149,    0.0,    2.7,   0.00,   0.00, 1007.2,   86.2, -999.0
10-01-2022, 00:40:12,    150,    0.0,    2.7,   0.00,   0.00, 1007.2,   86.1, -999.0
10-01-2022, 00:40:22,    150,    0.0,    2.7,   0.00,   0.00, 1007.3,   86.1, -999.0
10-01-2022, 00:40:31,    149,    0.0,    2.7,   0.00,   0.00, 1007.3,   86.0, -999.0
10-01-2022, 00:40:41,    150,    0.0,    2.7,   0.00,   0.00, 1007.3,   86.1, -999.0
10-01-2022, 00:40:51,    150,    0.0,    2.7,   0.00,   0.00, 1007.3,   86.0, -999.0
10-01-2022, 00:41:01,    150,    0.0,    2.7,   0.00,   0.00, 1007.3,   85.9, -999.0
10-01-2022, 00:41:11,    150,    0.0,    2.7,   0.00,   0.00, 1007.3,   86.0, -999.0
10-01-2022, 00:41:21,    149,    0.0,    2.6,   0.00,   0.00, 1007.2,   86.0, -999.0
10-01-2022, 00:41:31,    150,    0.0,    2.7,   0.00,   0.00, 1007.2,   85.9, -999.0
10-01-2022, 00:41:41,    150,    0.0,    2.7,   0.00,   0.00, 1007.2,   86.0, -999.0
10-01-2022, 00:41:51,    150,    0.0,    2.7,   0.00,   0.00, 1007.3,   86.0, -999.0
10-01-2022, 00:42:01,    150,    0.0,    2.7,   0.00,   0.00, 1007.3,   86.0, -999.0
10-01-2022, 00:42:11,    149,    0.0,    2.7,   0.00,   0.00, 1007.3,   85.9, -999.0
10-01-2022, 00:42:21,    150,    0.0,    2.7,   0.00,   0.00, 1007.2,   85.9, -999.0
10-01-2022, 00:42:31,    150,    0.0,    2.6,   0.00,   0.00, 1007.2,   85.9, -999.0
10-01-2022, 00:42:41,    150,    0.0,    2.7,   0.00,   0.00, 1007.2,   85.9, -999.0
10-01-2022, 00:42:51,    149,    0.0,    2.6,   0.00,   0.00, 1007.3,   85.9, -999.0
10-01-2022, 00:43:01,    150,    0.0,    2.7,   0.00,   0.00, 1007.3,   85.9, -999.0
10-01-2022, 00:43:10,    150,    0.0,    2.7,   0.00,   0.00, 1007.2,   85.8, -999.0
10-01-2022, 00:43:21,    150,    0.0,    2.6,   0.00,   0.00, 1007.2,   85.9, -999.0
10-01-2022, 00:43:31,    150,    0.0,    2.6,   0.00,   0.00, 1007.3,   85.9, -999.0
10-01-2022, 00:43:40,    150,    0.0,    2.6,   0.00,   0.00, 1007.2,   86.0, -999.0
10-01-2022, 00:43:50,    150,    0.0,    2.5,   0.00,   0.00, 1007.3,   85.9, -999.0
10-01-2022, 00:44:00,    150,    0.0,    2.7,   0.00,   0.00, 1007.3,   85.9, -999.0
10-01-2022, 00:44:10,    150,    0.0,    2.7,   0.00,   0.00, 1007.2,   85.9, -999.0
10-01-2022, 00:44:20,    150,    0.0,    2.6,   0.00,   0.00, 1007.2,   86.0, -999.0
10-01-2022, 00:44:30,    150,    0.0,    2.6,   0.00,   0.00, 1007.2,   85.9, -999.0
10-01-2022, 00:44:40,    149,    0.0,    2.6,   0.00,   0.00, 1007.3,   85.9, -999.0
10-01-2022, 00:44:50,    150,    0.0,    2.6,   0.00,   0.00, 1007.3,   85.8, -999.0
10-01-2022, 00:45:00,    150,    0.0,    2.6,   0.00,   0.00, 1007.2,   85.9, -999.0
10-01-2022, 00:45:10,    149,    0.0,    2.6,   0.00,   0.00, 1007.3,   86.0, -999.0
10-01-2022, 00:45:20,    150,    0.0,    2.6,   0.00,   0.00, 1007.3,   85.9, -999.0
10-01-2022, 00:45:30,    150,    0.0,    2.7,   0.00,   0.00, 1007.2,   85.9, -999.0
10-01-2022, 00:45:40,    150,    0.0,    2.6,   0.00,   0.00, 1007.3,   85.9, -999.0
10-01-2022, 00:45:50,    149,    0.0,    2.6,   0.00,   0.00, 1007.2,   86.0, -999.0
10-01-2022, 00:46:00,    150,    0.0,    2.6,   0.00,   0.00, 1007.3,   85.9, -999.0
10-01-2022, 00:46:10,    150,    0.0,    2.6,   0.00,   0.00, 1007.3,   86.0, -999.0
10-01-2022, 00:46:19,    150,    0.0,    2.6,   0.00,   0.00, 1007.2,   85.9, -999.0
10-01-2022, 00:46:30,    150,    0.0,    2.6,   0.00,   0.00, 1007.3,   86.0, -999.0
10-01-2022, 00:46:39,    150,    0.0,    2.6,   0.00,   0.00, 1007.3,   85.9, -999.0